| time (UTC) | temp F | wind direction | speed MPH | gust MPH | rain 1hr in | rain 24hr in | rain mn in | humidity % | barometer mb |
| 20260502203053 | 49 | 292 | 0.0 | 1.0 | 0.00 | 0.02 | 0.02 | 63 | 1016.9 |
| 20260502201552 | 49 | 292 | 0.0 | 1.0 | 0.00 | 0.02 | 0.02 | 63 | 1017.0 |
| 20260502200050 | 49 | 292 | 0.0 | 1.0 | 0.00 | 0.02 | 0.02 | 61 | 1017.1 |
| 20260502194548 | 50 | 292 | 0.0 | 1.0 | 0.00 | 0.02 | 0.02 | 59 | 1017.1 |
| 20260502193051 | 50 | 292 | 0.0 | 1.0 | 0.00 | 0.02 | 0.02 | 59 | 1017.0 |
| 20260502191549 | 51 | 292 | 0.0 | 1.0 | 0.00 | 0.02 | 0.02 | 56 | 1017.0 |
| 20260502190046 | 51 | 292 | 0.0 | 1.0 | 0.00 | 0.02 | 0.02 | 53 | 1017.0 |
| 20260502184555 | 51 | 291 | 0.0 | 2.0 | 0.00 | 0.02 | 0.02 | 52 | 1016.9 |
| 20260502183046 | 52 | 292 | 0.0 | 2.0 | 0.00 | 0.02 | 0.02 | 52 | 1016.9 |
| 20260502181546 | 52 | 291 | 0.0 | 3.0 | 0.00 | 0.02 | 0.02 | 52 | 1016.7 |
| 20260502163039 | 54 | 360 | 4.0 | 13.0 | 0.00 | 0.02 | 0.02 | 47 | 1016.5 |
| 20260502161538 | 54 | 19 | 5.0 | 11.0 | 0.00 | 0.02 | 0.02 | 45 | 1016.6 |
| 20260502151533 | 54 | 333 | 6.0 | 15.0 | 0.00 | 0.02 | 0.02 | 47 | 1016.9 |
| 20260502123024 | 55 | 355 | 7.0 | 17.0 | 0.00 | 0.02 | 0.02 | 47 | 1017.4 |
| 20260502121536 | 56 | 345 | 6.0 | 13.0 | 0.00 | 0.02 | 0.02 | 47 | 1017.3 |
| 20260502114521 | 55 | 10 | 8.0 | 21.0 | 0.00 | 0.02 | 0.02 | 47 | 1017.5 |
| 20260502113020 | 56 | 6 | 5.0 | 15.0 | 0.00 | 0.02 | 0.02 | 48 | 1017.4 |
| 20260502111517 | 54 | 350 | 2.0 | 11.0 | 0.00 | 0.02 | 0.02 | 55 | 1017.4 |
| 20260502110019 | 54 | 326 | 4.0 | 12.0 | 0.00 | 0.02 | 0.02 | 56 | 1017.8 |
| 20260502104516 | 55 | 38 | 5.0 | 17.0 | 0.00 | 0.02 | 0.02 | 55 | 1017.7 |
| 20260502103020 | 54 | 334 | 3.0 | 13.0 | 0.00 | 0.02 | 0.02 | 57 | 1017.9 |
| 20260502101515 | 54 | 326 | 5.0 | 18.0 | 0.00 | 0.02 | 0.02 | 59 | 1018.1 |
| 20260502091510 | 53 | 19 | 6.0 | 17.0 | 0.00 | 0.02 | 0.02 | 60 | 1018.0 |
| 20260502070059 | 55 | 340 | 8.0 | 18.0 | 0.00 | 0.02 | 0.02 | 57 | 1017.7 |
| 20260502064602 | 54 | 10 | 4.0 | 17.0 | 0.00 | 0.02 | 0.02 | 59 | 1017.6 |
| 20260502063059 | 55 | 350 | 6.0 | 14.0 | 0.00 | 0.02 | 0.02 | 58 | 1017.7 |
| 20260502061554 | 54 | 48 | 4.0 | 15.0 | 0.00 | 0.02 | 0.02 | 60 | 1017.7 |
| 20260502060050 | 53 | 58 | 8.0 | 18.0 | 0.00 | 0.02 | 0.02 | 61 | 1017.7 |
| 20260502054548 | 53 | 46 | 5.0 | 16.0 | 0.00 | 0.02 | 0.02 | 64 | 1017.5 |
| 20260502053046 | 52 | 333 | 2.0 | 12.0 | 0.00 | 0.02 | 0.02 | 68 | 1017.7 |
| 20260502051544 | 52 | 324 | 4.0 | 12.0 | 0.00 | 0.02 | 0.02 | 70 | 1017.7 |
| 20260502050046 | 51 | 341 | 4.0 | 14.0 | 0.00 | 0.02 | 0.02 | 71 | 1017.7 |
| 20260502044539 | 51 | 286 | 2.0 | 9.0 | 0.00 | 0.02 | 0.02 | 74 | 1017.8 |
| 20260502043038 | 51 | 360 | 3.0 | 9.0 | 0.00 | 0.02 | 0.02 | 76 | 1017.7 |
| 20260502041534 | 51 | 14 | 2.0 | 10.0 | 0.02 | 0.02 | 0.02 | 77 | 1017.7 |
| 20260502040032 | 50 | 337 | 3.0 | 11.0 | 0.02 | 0.02 | 0.02 | 80 | 1017.8 |
| 20260502034530 | 50 | 332 | 2.0 | 8.0 | 0.02 | 0.02 | 0.02 | 81 | 1017.7 |
| 20260502033039 | 50 | 335 | 1.0 | 10.0 | 0.02 | 0.02 | 0.02 | 79 | 1017.4 |
| 20260502031524 | 51 | 345 | 2.0 | 11.0 | 0.00 | 0.01 | 0.00 | 76 | 1017.4 |
| 20260502030024 | 52 | 355 | 1.0 | 9.0 | 0.00 | 0.01 | 0.00 | 75 | 1017.4 |
| 20260502024522 | 52 | 342 | 0.0 | 5.0 | 0.00 | 0.01 | 0.00 | 73 | 1017.5 |
| 20260502023022 | 52 | 311 | 0.0 | 7.0 | 0.00 | 0.01 | 0.00 | 72 | 1017.4 |
| 20260502021520 | 52 | 333 | 2.0 | 9.0 | 0.00 | 0.01 | 0.00 | 71 | 1017.4 |
| 20260502020020 | 52 | 326 | 1.0 | 8.0 | 0.00 | 0.01 | 0.00 | 71 | 1017.4 |
| 20260502014526 | 51 | 344 | 0.0 | 5.0 | 0.00 | 0.01 | 0.00 | 74 | 1017.3 |
| 20260502013018 | 51 | 338 | 1.0 | 4.0 | 0.00 | 0.01 | 0.00 | 76 | 1017.5 |
| 20260502011518 | 51 | 333 | 1.0 | 8.0 | 0.00 | 0.01 | 0.00 | 76 | 1017.5 |
| 20260502010016 | 51 | 332 | 0.0 | 9.0 | 0.00 | 0.01 | 0.00 | 75 | 1017.5 |
| 20260502004531 | 51 | 57 | 2.0 | 11.0 | 0.00 | 0.02 | 0.00 | 74 | 1017.5 |
| 20260502003013 | 52 | 64 | 3.0 | 10.0 | 0.00 | 0.02 | 0.00 | 73 | 1017.6 |
| 20260502001511 | 52 | 324 | 2.0 | 6.0 | 0.00 | 0.02 | 0.00 | 75 | 1017.8 |
| 20260502000009 | 52 | 322 | 0.0 | 9.0 | 0.00 | 0.02 | 0.00 | 75 | 1017.9 |
| 20260501234507 | 52 | 331 | 0.0 | 8.0 | 0.00 | 0.03 | 0.00 | 75 | 1017.9 |
| 20260501233005 | 52 | 318 | 0.0 | 10.0 | 0.00 | 0.03 | 0.00 | 74 | 1018.1 |
| 20260501231503 | 52 | 333 | 0.0 | 6.0 | 0.00 | 0.03 | 0.00 | 74 | 1018.1 |
| 20260501230003 | 52 | 268 | 0.0 | 3.0 | 0.00 | 0.03 | 0.00 | 74 | 1018.1 |
| 20260501224600 | 53 | 342 | 0.0 | 5.0 | 0.00 | 0.03 | 0.00 | 73 | 1018.3 |
| 20260501223107 | 53 | 343 | 0.0 | 5.0 | 0.00 | 0.03 | 0.00 | 73 | 1018.6 |
| 20260501221557 | 53 | 341 | 1.0 | 5.0 | 0.00 | 0.03 | 0.00 | 73 | 1018.9 |
| 20260501220104 | 53 | 308 | 0.0 | 5.0 | 0.00 | 0.03 | 0.00 | 73 | 1018.8 |
| 20260501214555 | 53 | 66 | 0.0 | 4.0 | 0.00 | 0.03 | 0.00 | 73 | 1018.7 |
| 20260501213109 | 53 | 345 | 0.0 | 4.0 | 0.00 | 0.03 | 0.00 | 73 | 1018.9 |
| 20260501211552 | 53 | 39 | 2.0 | 9.0 | 0.00 | 0.03 | 0.00 | 72 | 1018.9 |
| 20260501210049 | 53 | 274 | 1.0 | 6.0 | 0.00 | 0.03 | 0.00 | 72 | 1019.0 |
| 20260501204550 | 53 | 339 | 2.0 | 12.0 | 0.00 | 0.03 | 0.03 | 71 | 1019.0 |